User: anonymous   Login
Location: ???? ??????? ????
(31.2176°N, 31.6797°E)
Time: 14:47:08
(UTC+00:00)
Language:

Cosmos 1825 Rocket - Orbit

View from above orbital plane
View from above orbital plane
View from above satellite
View from above satellite

Ground track
Ground track

The orbit data is extracted from the following two-line orbital elements,

1 17567U 87024B   21019.83170915  .00000072  00000-0  58234-5 0  9990
2 17567  82.5276  50.3383 0018583 340.0392  20.0094 14.83788384810026
Epoch (UTC): 19 January 2021 19:57:39
Eccentricity: 0.0018583
inclination: 82.5276°
perigee height: 604 km
apogee height: 630 km
right ascension of ascending node: 50.3383°
argument of perigee: 340.0392°
revolutions per day: 14.83788384
mean anomaly at epoch: 20.0094°
orbit number at epoch: 81002

The dashed part of the orbit path shows where the satellite is in the earth's shadow,  

DLR